contact:dominique.lefevre@mio.osupytheas.fr, maurice.libes@osupytheas.fr, didier.mallarino@osupytheas.fr
Project:EMSO http://www.emso-fr.org/EMSO-France
Depth: 2436.0 m
Title:EMSO Ligure Ouest : Data MII capteur MICROCAT
DateTime_Computer,Latitude,Longitude,Temperature,Conductivity,Pressure,DateTime_Instrument
DateTime_Computer,Latitude,Longitude,degC,S m-1,dbar,DateTime_Instrument
2022-07-28T00:02:23Z,42.805,6.029,13.3021,4.60116,2470.651,2022-7-28T02:04:11Z
2022-07-28T00:05:26Z,42.805,6.029,13.3021,4.60111,2470.614,2022-7-28T02:07:14Z
2022-07-28T00:08:30Z,42.805,6.029,13.3027,4.60113,2470.624,2022-7-28T02:10:17Z
2022-07-28T00:11:33Z,42.805,6.029,13.3037,4.60088,2470.637,2022-7-28T02:13:20Z
2022-07-28T00:14:36Z,42.805,6.029,13.3015,4.60128,2470.624,2022-7-28T02:16:23Z
2022-07-28T00:17:39Z,42.805,6.029,13.3019,4.60117,2470.637,2022-7-28T02:19:27Z
2022-07-28T00:20:42Z,42.805,6.029,13.3021,4.60120,2470.637,2022-7-28T02:22:30Z
2022-07-28T00:23:45Z,42.805,6.029,13.3024,4.60140,2470.577,2022-7-28T02:25:33Z
2022-07-28T00:26:48Z,42.805,6.029,13.3029,4.60145,2470.624,2022-7-28T02:28:36Z
2022-07-28T00:29:51Z,42.805,6.029,13.3029,4.60164,2470.614,2022-7-28T02:31:39Z
2022-07-28T00:32:55Z,42.805,6.029,13.3043,4.60132,2470.637,2022-7-28T02:34:42Z
2022-07-28T00:35:58Z,42.805,6.029,13.3034,4.60067,2470.6,2022-7-28T02:37:45Z
2022-07-28T00:39:01Z,42.805,6.029,13.3040,4.60079,2470.577,2022-7-28T02:40:48Z
2022-07-28T00:42:04Z,42.805,6.029,13.3018,4.60074,2470.567,2022-7-28T02:43:51Z
2022-07-28T00:45:07Z,42.805,6.029,13.3018,4.60096,2470.624,2022-7-28T02:46:55Z
2022-07-28T00:48:10Z,42.805,6.029,13.3039,4.60077,2470.591,2022-7-28T02:49:58Z
2022-07-28T00:51:13Z,42.805,6.029,13.3029,4.60081,2470.591,2022-7-28T02:53:01Z
2022-07-28T00:54:16Z,42.805,6.029,13.3024,4.60104,2470.614,2022-7-28T02:56:04Z
2022-07-28T00:57:20Z,42.805,6.029,13.3026,4.60156,2470.6,2022-7-28T02:59:07Z
2022-07-28T01:00:23Z,42.805,6.029,13.3015,4.60129,2470.577,2022-7-28T03:02:10Z
2022-07-28T01:03:26Z,42.805,6.029,13.3015,4.60107,2470.586,2022-7-28T03:05:13Z
2022-07-28T01:06:29Z,42.805,6.029,13.3029,4.60065,2470.591,2022-7-28T03:08:16Z
2022-07-28T01:09:32Z,42.805,6.029,13.3027,4.60074,2470.553,2022-7-28T03:11:20Z
2022-07-28T01:12:35Z,42.805,6.029,13.3015,4.60120,2470.646,2022-7-28T03:14:23Z
2022-07-28T01:15:38Z,42.805,6.029,13.3043,4.60093,2470.6,2022-7-28T03:17:26Z
2022-07-28T01:18:41Z,42.805,6.029,13.3049,4.60138,2470.6,2022-7-28T03:20:29Z
2022-07-28T01:21:45Z,42.805,6.029,13.3058,4.60112,2470.614,2022-7-28T03:23:32Z
2022-07-28T01:24:48Z,42.805,6.029,13.3064,4.60140,2470.567,2022-7-28T03:26:35Z
2022-07-28T01:27:51Z,42.805,6.029,13.3072,4.60108,2470.6,2022-7-28T03:29:38Z
2022-07-28T01:30:54Z,42.805,6.029,13.3078,4.60121,2470.591,2022-7-28T03:32:41Z
2022-07-28T01:33:57Z,42.805,6.029,13.3036,4.60086,2470.591,2022-7-28T03:35:45Z
2022-07-28T01:37:00Z,42.805,6.029,13.3031,4.60125,2470.591,2022-7-28T03:38:48Z
2022-07-28T01:40:03Z,42.805,6.029,13.3033,4.60077,2470.577,2022-7-28T03:41:51Z
2022-07-28T01:43:06Z,42.805,6.029,13.3059,4.60077,2470.6,2022-7-28T03:44:54Z
2022-07-28T01:46:09Z,42.805,6.029,13.3073,4.60064,2470.577,2022-7-28T03:47:57Z
2022-07-28T01:49:13Z,42.805,6.029,13.3079,4.60106,2470.553,2022-7-28T03:51:00Z
2022-07-28T01:52:16Z,42.805,6.029,13.3077,4.60074,2470.591,2022-7-28T03:54:03Z
2022-07-28T01:55:19Z,42.805,6.029,13.3051,4.60067,2470.591,2022-7-28T03:57:06Z
2022-07-28T01:58:22Z,42.805,6.029,13.3026,4.60086,2470.577,2022-7-28T04:00:10Z
2022-07-28T02:01:25Z,42.805,6.029,13.3046,4.60093,2470.591,2022-7-28T04:03:13Z
2022-07-28T02:04:28Z,42.805,6.029,13.3082,4.60075,2470.591,2022-7-28T04:06:16Z
2022-07-28T02:07:31Z,42.805,6.029,13.3079,4.60062,2470.591,2022-7-28T04:09:19Z
2022-07-28T02:10:34Z,42.805,6.029,13.3062,4.60070,2470.577,2022-7-28T04:12:22Z
2022-07-28T02:13:38Z,42.805,6.029,13.3064,4.60073,2470.577,2022-7-28T04:15:25Z
2022-07-28T02:16:41Z,42.805,6.029,13.3037,4.60082,2470.6,2022-7-28T04:18:28Z
2022-07-28T02:19:44Z,42.805,6.029,13.3067,4.60073,2470.6,2022-7-28T04:21:31Z
2022-07-28T02:22:47Z,42.805,6.029,13.3079,4.60081,2470.591,2022-7-28T04:24:35Z
2022-07-28T02:25:50Z,42.805,6.029,13.3070,4.60073,2470.591,2022-7-28T04:27:38Z
2022-07-28T02:28:53Z,42.805,6.029,13.3048,4.60066,2470.553,2022-7-28T04:30:41Z
2022-07-28T02:31:56Z,42.805,6.029,13.3076,4.60096,2470.577,2022-7-28T04:33:44Z
2022-07-28T02:34:59Z,42.805,6.029,13.3066,4.60099,2470.591,2022-7-28T04:36:47Z
2022-07-28T02:38:03Z,42.805,6.029,13.3074,4.60071,2470.553,2022-7-28T04:39:50Z
2022-07-28T02:41:06Z,42.805,6.029,13.3048,4.60099,2470.577,2022-7-28T04:42:53Z
2022-07-28T02:44:09Z,42.805,6.029,13.3065,4.60084,2470.577,2022-7-28T04:45:56Z
2022-07-28T02:47:12Z,42.805,6.029,13.3082,4.60102,2470.614,2022-7-28T04:48:59Z
2022-07-28T02:50:15Z,42.805,6.029,13.3069,4.60074,2470.591,2022-7-28T04:52:03Z
2022-07-28T02:53:18Z,42.805,6.029,13.3056,4.60092,2470.577,2022-7-28T04:55:06Z
2022-07-28T02:56:21Z,42.805,6.029,13.3052,4.60099,2470.591,2022-7-28T04:58:09Z
2022-07-28T02:59:24Z,42.805,6.029,13.3073,4.60127,2470.6,2022-7-28T05:01:12Z
2022-07-28T03:02:28Z,42.805,6.029,13.3070,4.60079,2470.591,2022-7-28T05:04:15Z
2022-07-28T03:05:31Z,42.805,6.029,13.3062,4.60077,2470.591,2022-7-28T05:07:18Z
2022-07-28T03:08:34Z,42.805,6.029,13.3015,4.60110,2470.577,2022-7-28T05:10:21Z
2022-07-28T03:11:37Z,42.805,6.029,13.3031,4.60125,2470.614,2022-7-28T05:13:24Z
2022-07-28T03:14:40Z,42.805,6.029,13.3037,4.60113,2470.577,2022-7-28T05:16:28Z
2022-07-28T03:17:43Z,42.805,6.029,13.3073,4.60125,2470.591,2022-7-28T05:19:31Z
2022-07-28T03:20:46Z,42.805,6.029,13.3080,4.60124,2470.567,2022-7-28T05:22:34Z
2022-07-28T03:23:49Z,42.805,6.029,13.3097,4.60101,2470.6,2022-7-28T05:25:37Z
2022-07-28T03:26:52Z,42.805,6.029,13.3053,4.60092,2470.553,2022-7-28T05:28:40Z
2022-07-28T03:29:56Z,42.805,6.029,13.3063,4.60104,2470.591,2022-7-28T05:31:43Z
2022-07-28T03:32:59Z,42.805,6.029,13.3027,4.60100,2470.614,2022-7-28T05:34:46Z
2022-07-28T03:36:02Z,42.805,6.029,13.3033,4.60087,2470.591,2022-7-28T05:37:49Z
2022-07-28T03:39:05Z,42.805,6.029,13.3037,4.60137,2470.591,2022-7-28T05:40:53Z
2022-07-28T03:42:08Z,42.805,6.029,13.3066,4.60132,2470.577,2022-7-28T05:43:56Z
2022-07-28T03:45:11Z,42.805,6.029,13.3061,4.60093,2470.6,2022-7-28T05:46:59Z
2022-07-28T03:48:14Z,42.805,6.029,13.3021,4.60121,2470.6,2022-7-28T05:50:02Z
2022-07-28T03:51:17Z,42.805,6.029,13.3043,4.60110,2470.553,2022-7-28T05:53:05Z
2022-07-28T03:54:21Z,42.805,6.029,13.3038,4.60102,2470.591,2022-7-28T05:56:08Z
2022-07-28T03:57:24Z,42.805,6.029,13.3067,4.60147,2470.6,2022-7-28T05:59:11Z
2022-07-28T04:00:27Z,42.805,6.029,13.3059,4.60163,2470.591,2022-7-28T06:02:14Z
2022-07-28T04:03:30Z,42.805,6.029,13.3064,4.60099,2470.624,2022-7-28T06:05:17Z
2022-07-28T04:06:33Z,42.805,6.029,13.3035,4.60109,2470.6,2022-7-28T06:08:21Z
2022-07-28T04:09:36Z,42.805,6.029,13.3076,4.60132,2470.6,2022-7-28T06:11:24Z
2022-07-28T04:12:39Z,42.805,6.029,13.3089,4.60119,2470.624,2022-7-28T06:14:27Z
2022-07-28T04:15:42Z,42.805,6.029,13.3072,4.60091,2470.591,2022-7-28T06:17:30Z
2022-07-28T04:18:46Z,42.805,6.029,13.3078,4.60077,2470.6,2022-7-28T06:20:33Z
2022-07-28T04:21:49Z,42.805,6.029,13.3065,4.60092,2470.637,2022-7-28T06:23:36Z
2022-07-28T04:24:52Z,42.805,6.029,13.3044,4.60097,2470.591,2022-7-28T06:26:39Z
2022-07-28T04:27:55Z,42.805,6.029,13.3064,4.60092,2470.6,2022-7-28T06:29:42Z
2022-07-28T04:30:58Z,42.805,6.029,13.3074,4.60108,2470.591,2022-7-28T06:32:46Z
2022-07-28T04:34:01Z,42.805,6.029,13.3078,4.60096,2470.637,2022-7-28T06:35:49Z
2022-07-28T04:37:04Z,42.805,6.029,13.3076,4.60075,2470.637,2022-7-28T06:38:52Z
2022-07-28T04:40:07Z,42.805,6.029,13.3081,4.60085,2470.624,2022-7-28T06:41:55Z
2022-07-28T04:43:11Z,42.805,6.029,13.3060,4.60080,2470.637,2022-7-28T06:44:58Z
2022-07-28T04:46:14Z,42.805,6.029,13.3056,4.60081,2470.637,2022-7-28T06:48:01Z
2022-07-28T04:49:17Z,42.805,6.029,13.3053,4.60074,2470.646,2022-7-28T06:51:04Z
2022-07-28T04:52:20Z,42.805,6.029,13.3039,4.60060,2470.637,2022-7-28T06:54:07Z
2022-07-28T04:55:23Z,42.805,6.029,13.3040,4.60060,2470.6,2022-7-28T06:57:11Z
2022-07-28T04:58:26Z,42.805,6.029,13.3056,4.60057,2470.637,2022-7-28T07:00:14Z
2022-07-28T05:01:29Z,42.805,6.029,13.3074,4.60064,2470.577,2022-7-28T07:03:17Z
2022-07-28T05:04:32Z,42.805,6.029,13.3074,4.60059,2470.624,2022-7-28T07:06:20Z
2022-07-28T05:07:35Z,42.805,6.029,13.3091,4.60062,2470.661,2022-7-28T07:09:23Z
2022-07-28T05:10:39Z,42.805,6.029,13.3053,4.60094,2470.646,2022-7-28T07:12:26Z
2022-07-28T05:13:42Z,42.805,6.029,13.3055,4.60078,2470.637,2022-7-28T07:15:29Z
2022-07-28T05:16:45Z,42.805,6.029,13.3068,4.60087,2470.646,2022-7-28T07:18:32Z
2022-07-28T05:19:48Z,42.805,6.029,13.3054,4.60127,2470.637,2022-7-28T07:21:36Z
2022-07-28T05:22:51Z,42.805,6.029,13.3065,4.60115,2470.646,2022-7-28T07:24:39Z
2022-07-28T05:25:54Z,42.805,6.029,13.3072,4.60103,2470.637,2022-7-28T07:27:42Z
2022-07-28T05:28:57Z,42.805,6.029,13.3078,4.60070,2470.707,2022-7-28T07:30:45Z
2022-07-28T05:32:00Z,42.805,6.029,13.3080,4.60062,2470.646,2022-7-28T07:33:48Z
2022-07-28T05:35:04Z,42.805,6.029,13.3105,4.60067,2470.661,2022-7-28T07:36:51Z
2022-07-28T05:38:07Z,42.805,6.029,13.3088,4.60087,2470.646,2022-7-28T07:39:54Z
2022-07-28T05:41:10Z,42.805,6.029,13.3076,4.60084,2470.684,2022-7-28T07:42:57Z
2022-07-28T05:44:13Z,42.805,6.029,13.3029,4.60072,2470.684,2022-7-28T07:46:01Z
2022-07-28T05:47:16Z,42.805,6.029,13.3014,4.60069,2470.707,2022-7-28T07:49:04Z
2022-07-28T05:50:19Z,42.805,6.029,13.3009,4.60084,2470.661,2022-7-28T07:52:07Z
2022-07-28T05:53:22Z,42.805,6.029,13.3006,4.60066,2470.67,2022-7-28T07:55:10Z
2022-07-28T05:56:25Z,42.805,6.029,13.3009,4.60087,2470.684,2022-7-28T07:58:13Z
2022-07-28T05:59:29Z,42.805,6.029,13.3009,4.60062,2470.67,2022-7-28T08:01:16Z
2022-07-28T06:02:32Z,42.805,6.029,13.3005,4.60061,2470.646,2022-7-28T08:04:19Z
2022-07-28T06:05:35Z,42.805,6.029,13.3006,4.60057,2470.661,2022-7-28T08:07:22Z
2022-07-28T06:08:38Z,42.805,6.029,13.3000,4.60061,2470.67,2022-7-28T08:10:25Z
2022-07-28T06:11:41Z,42.805,6.029,13.3004,4.60055,2470.661,2022-7-28T08:13:29Z
2022-07-28T06:14:44Z,42.805,6.029,13.3004,4.60057,2470.707,2022-7-28T08:16:32Z
2022-07-28T06:17:47Z,42.805,6.029,13.3006,4.60057,2470.67,2022-7-28T08:19:35Z
2022-07-28T06:20:50Z,42.805,6.029,13.3006,4.60061,2470.67,2022-7-28T08:22:38Z
2022-07-28T06:23:54Z,42.805,6.029,13.3021,4.60081,2470.67,2022-7-28T08:25:41Z
2022-07-28T06:26:57Z,42.805,6.029,13.3013,4.60052,2470.67,2022-7-28T08:28:44Z
2022-07-28T06:30:00Z,42.805,6.029,13.3005,4.60114,2470.684,2022-7-28T08:31:47Z
2022-07-28T06:33:03Z,42.805,6.029,13.3006,4.60062,2470.707,2022-7-28T08:34:50Z
2022-07-28T06:36:06Z,42.805,6.029,13.3006,4.60063,2470.684,2022-7-28T08:37:54Z
2022-07-28T06:39:09Z,42.805,6.029,13.3007,4.60058,2470.693,2022-7-28T08:40:57Z
2022-07-28T06:42:12Z,42.805,6.029,13.3006,4.60058,2470.67,2022-7-28T08:44:00Z
2022-07-28T06:45:15Z,42.805,6.029,13.3006,4.60056,2470.646,2022-7-28T08:47:03Z
2022-07-28T06:48:18Z,42.805,6.029,13.3004,4.60052,2470.67,2022-7-28T08:50:06Z
2022-07-28T06:51:22Z,42.805,6.029,13.3005,4.60053,2470.684,2022-7-28T08:53:09Z
2022-07-28T06:54:25Z,42.805,6.029,13.3006,4.60052,2470.684,2022-7-28T08:56:12Z
2022-07-28T06:57:28Z,42.805,6.029,13.3006,4.60049,2470.646,2022-7-28T08:59:15Z
2022-07-28T07:00:31Z,42.805,6.029,13.3003,4.60052,2470.661,2022-7-28T09:02:18Z
2022-07-28T07:03:34Z,42.805,6.029,13.3009,4.60052,2470.693,2022-7-28T09:05:22Z
2022-07-28T07:06:37Z,42.805,6.029,13.3010,4.60052,2470.661,2022-7-28T09:08:25Z
2022-07-28T07:09:40Z,42.805,6.029,13.3004,4.60046,2470.693,2022-7-28T09:11:28Z
2022-07-28T07:12:43Z,42.805,6.029,13.3001,4.60044,2470.67,2022-7-28T09:14:31Z
2022-07-28T07:15:47Z,42.805,6.029,13.3005,4.60049,2470.684,2022-7-28T09:17:34Z
2022-07-28T07:18:50Z,42.805,6.029,13.3009,4.60049,2470.67,2022-7-28T09:20:37Z
2022-07-28T07:21:53Z,42.805,6.029,13.3006,4.60049,2470.693,2022-7-28T09:23:40Z
2022-07-28T07:24:56Z,42.805,6.029,13.3016,4.60062,2470.646,2022-7-28T09:26:43Z
2022-07-28T07:27:59Z,42.805,6.029,13.3032,4.60081,2470.684,2022-7-28T09:29:47Z
2022-07-28T07:31:02Z,42.805,6.029,13.3070,4.60089,2470.661,2022-7-28T09:32:50Z
2022-07-28T07:34:05Z,42.805,6.029,13.3038,4.60081,2470.67,2022-7-28T09:35:53Z
2022-07-28T07:37:08Z,42.805,6.029,13.3033,4.60054,2470.684,2022-7-28T09:38:56Z
2022-07-28T07:40:12Z,42.805,6.029,13.3024,4.60081,2470.67,2022-7-28T09:41:59Z
2022-07-28T07:43:15Z,42.805,6.029,13.3038,4.60066,2470.646,2022-7-28T09:45:02Z
2022-07-28T07:46:18Z,42.805,6.029,13.3038,4.60052,2470.646,2022-7-28T09:48:05Z
2022-07-28T07:49:21Z,42.805,6.029,13.3046,4.60078,2470.637,2022-7-28T09:51:08Z
2022-07-28T07:52:24Z,42.805,6.029,13.3031,4.60082,2470.717,2022-7-28T09:54:12Z
2022-07-28T07:55:27Z,42.805,6.029,13.3017,4.60062,2470.684,2022-7-28T09:57:15Z
2022-07-28T07:58:30Z,42.805,6.029,13.3034,4.60062,2470.646,2022-7-28T10:00:18Z
2022-07-28T08:01:33Z,42.805,6.029,13.3034,4.60077,2470.67,2022-7-28T10:03:21Z
2022-07-28T08:04:37Z,42.805,6.029,13.3058,4.60054,2470.67,2022-7-28T10:06:24Z
2022-07-28T08:07:40Z,42.805,6.029,13.3038,4.60075,2470.67,2022-7-28T10:09:27Z
2022-07-28T08:10:43Z,42.805,6.029,13.3050,4.60074,2470.646,2022-7-28T10:12:30Z
2022-07-28T08:13:46Z,42.805,6.029,13.3037,4.60080,2470.67,2022-7-28T10:15:33Z
2022-07-28T08:16:49Z,42.805,6.029,13.3043,4.60065,2470.646,2022-7-28T10:18:37Z
2022-07-28T08:19:52Z,42.805,6.029,13.3041,4.60075,2470.646,2022-7-28T10:21:40Z
2022-07-28T08:22:55Z,42.805,6.029,13.3039,4.60069,2470.624,2022-7-28T10:24:43Z
2022-07-28T08:25:58Z,42.805,6.029,13.3041,4.60117,2470.637,2022-7-28T10:27:46Z
2022-07-28T08:29:02Z,42.805,6.029,13.3043,4.60086,2470.661,2022-7-28T10:30:49Z
2022-07-28T08:32:05Z,42.805,6.029,13.3036,4.60072,2470.67,2022-7-28T10:33:52Z
2022-07-28T08:35:08Z,42.805,6.029,13.3069,4.60066,2470.624,2022-7-28T10:36:55Z
2022-07-28T08:38:11Z,42.805,6.029,13.3040,4.60064,2470.624,2022-7-28T10:39:58Z
2022-07-28T08:41:14Z,42.805,6.029,13.3061,4.60079,2470.661,2022-7-28T10:43:02Z
2022-07-28T08:44:17Z,42.805,6.029,13.3058,4.60086,2470.646,2022-7-28T10:46:05Z
2022-07-28T08:47:20Z,42.805,6.029,13.3059,4.60060,2470.67,2022-7-28T10:49:08Z
2022-07-28T08:50:23Z,42.805,6.029,13.3051,4.60087,2470.67,2022-7-28T10:52:11Z
2022-07-28T08:53:27Z,42.805,6.029,13.3056,4.60104,2470.646,2022-7-28T10:55:14Z
2022-07-28T08:56:30Z,42.805,6.029,13.3047,4.60074,2470.661,2022-7-28T10:58:17Z
2022-07-28T08:59:33Z,42.805,6.029,13.3045,4.60082,2470.624,2022-7-28T11:01:20Z
2022-07-28T09:02:36Z,42.805,6.029,13.3038,4.60110,2470.646,2022-7-28T11:04:23Z
2022-07-28T09:05:39Z,42.805,6.029,13.3041,4.60119,2470.637,2022-7-28T11:07:27Z
2022-07-28T09:08:42Z,42.805,6.029,13.3029,4.60130,2470.637,2022-7-28T11:10:30Z
2022-07-28T09:11:45Z,42.805,6.029,13.3033,4.60111,2470.646,2022-7-28T11:13:33Z
2022-07-28T09:14:48Z,42.805,6.029,13.3054,4.60133,2470.614,2022-7-28T11:16:36Z
2022-07-28T09:17:52Z,42.805,6.029,13.3043,4.60108,2470.624,2022-7-28T11:19:39Z
2022-07-28T09:20:55Z,42.805,6.029,13.3053,4.60114,2470.637,2022-7-28T11:22:42Z
2022-07-28T09:23:58Z,42.805,6.029,13.3048,4.60088,2470.624,2022-7-28T11:25:45Z
2022-07-28T09:27:01Z,42.805,6.029,13.3029,4.60099,2470.637,2022-7-28T11:28:48Z
2022-07-28T09:30:04Z,42.805,6.029,13.3035,4.60080,2470.614,2022-7-28T11:31:52Z
2022-07-28T09:33:07Z,42.805,6.029,13.3039,4.60120,2470.637,2022-7-28T11:34:55Z
2022-07-28T09:36:10Z,42.805,6.029,13.3029,4.60099,2470.637,2022-7-28T11:37:58Z
2022-07-28T09:39:13Z,42.805,6.029,13.3033,4.60113,2470.637,2022-7-28T11:41:01Z
2022-07-28T09:42:17Z,42.805,6.029,13.3036,4.60126,2470.624,2022-7-28T11:44:04Z
2022-07-28T09:45:20Z,42.805,6.029,13.3032,4.60111,2470.6,2022-7-28T11:47:07Z
2022-07-28T09:48:23Z,42.805,6.029,13.3034,4.60121,2470.6,2022-7-28T11:50:10Z
2022-07-28T09:51:26Z,42.805,6.029,13.3032,4.60112,2470.577,2022-7-28T11:53:14Z
2022-07-28T09:54:29Z,42.805,6.029,13.3041,4.60116,2470.6,2022-7-28T11:56:17Z
2022-07-28T09:57:32Z,42.805,6.029,13.3036,4.60107,2470.624,2022-7-28T11:59:20Z
2022-07-28T10:00:35Z,42.805,6.029,13.3038,4.60082,2470.6,2022-7-28T12:02:23Z
2022-07-28T10:03:38Z,42.805,6.029,13.3034,4.60118,2470.6,2022-7-28T12:05:26Z
2022-07-28T10:06:42Z,42.805,6.029,13.3032,4.60135,2470.577,2022-7-28T12:08:29Z
2022-07-28T10:09:45Z,42.805,6.029,13.3045,4.60142,2470.6,2022-7-28T12:11:32Z
2022-07-28T10:12:48Z,42.805,6.029,13.3041,4.60110,2470.6,2022-7-28T12:14:35Z
2022-07-28T10:15:51Z,42.805,6.029,13.3027,4.60125,2470.6,2022-7-28T12:17:39Z
2022-07-28T10:18:54Z,42.805,6.029,13.3033,4.60117,2470.6,2022-7-28T12:20:42Z
2022-07-28T10:21:57Z,42.805,6.029,13.3031,4.60097,2470.553,2022-7-28T12:23:45Z
2022-07-28T10:25:00Z,42.805,6.029,13.3024,4.60112,2470.577,2022-7-28T12:26:48Z
2022-07-28T10:28:03Z,42.805,6.029,13.3023,4.60104,2470.577,2022-7-28T12:29:51Z
2022-07-28T10:31:07Z,42.805,6.029,13.3030,4.60113,2470.6,2022-7-28T12:32:54Z
2022-07-28T10:34:10Z,42.805,6.029,13.3047,4.60146,2470.577,2022-7-28T12:35:57Z
2022-07-28T10:37:13Z,42.805,6.029,13.3034,4.60096,2470.577,2022-7-28T12:39:00Z
2022-07-28T10:40:16Z,42.805,6.029,13.3029,4.60127,2470.577,2022-7-28T12:42:04Z
2022-07-28T10:43:19Z,42.805,6.029,13.3039,4.60129,2470.53,2022-7-28T12:45:07Z
2022-07-28T10:46:22Z,42.805,6.029,13.3022,4.60105,2470.577,2022-7-28T12:48:10Z
2022-07-28T10:49:25Z,42.805,6.029,13.3032,4.60097,2470.553,2022-7-28T12:51:13Z
2022-07-28T10:52:28Z,42.805,6.029,13.3028,4.60117,2470.577,2022-7-28T12:54:16Z
2022-07-28T10:55:32Z,42.805,6.029,13.3028,4.60132,2470.577,2022-7-28T12:57:19Z
2022-07-28T10:58:35Z,42.805,6.029,13.3033,4.60102,2470.567,2022-7-28T13:00:22Z
2022-07-28T11:01:38Z,42.805,6.029,13.3025,4.60084,2470.577,2022-7-28T13:03:25Z
2022-07-28T11:04:41Z,42.805,6.029,13.3017,4.60116,2470.53,2022-7-28T13:06:29Z
2022-07-28T11:07:44Z,42.805,6.029,13.3037,4.60131,2470.577,2022-7-28T13:09:32Z
2022-07-28T11:10:47Z,42.805,6.029,13.3026,4.60123,2470.553,2022-7-28T13:12:35Z
2022-07-28T11:13:50Z,42.805,6.029,13.3018,4.60084,2470.577,2022-7-28T13:15:38Z
2022-07-28T11:16:53Z,42.805,6.029,13.3026,4.60080,2470.553,2022-7-28T13:18:41Z
2022-07-28T11:19:57Z,42.805,6.029,13.3019,4.60092,2470.544,2022-7-28T13:21:44Z
2022-07-28T11:23:00Z,42.805,6.029,13.3028,4.60081,2470.591,2022-7-28T13:24:47Z
2022-07-28T11:26:03Z,42.805,6.029,13.3025,4.60072,2470.553,2022-7-28T13:27:50Z
2022-07-28T11:29:06Z,42.805,6.029,13.3026,4.60120,2470.553,2022-7-28T13:30:54Z
2022-07-28T11:32:09Z,42.805,6.029,13.3026,4.60118,2470.591,2022-7-28T13:33:57Z
2022-07-28T11:35:12Z,42.805,6.029,13.3019,4.60109,2470.553,2022-7-28T13:37:00Z
2022-07-28T11:38:15Z,42.805,6.029,13.3028,4.60090,2470.52,2022-7-28T13:40:03Z
2022-07-28T11:41:19Z,42.805,6.029,13.3024,4.60097,2470.553,2022-7-28T13:43:06Z
2022-07-28T11:44:22Z,42.805,6.029,13.3023,4.60133,2470.507,2022-7-28T13:46:09Z
2022-07-28T11:47:25Z,42.805,6.029,13.3040,4.60103,2470.53,2022-7-28T13:49:12Z
2022-07-28T11:50:28Z,42.805,6.029,13.3045,4.60129,2470.539,2022-7-28T13:52:15Z
2022-07-28T11:53:31Z,42.805,6.029,13.3028,4.60125,2470.544,2022-7-28T13:55:19Z
2022-07-28T11:56:34Z,42.805,6.029,13.3026,4.60111,2470.591,2022-7-28T13:58:22Z
2022-07-28T11:59:37Z,42.805,6.029,13.3017,4.60128,2470.53,2022-7-28T14:01:25Z
2022-07-28T12:02:40Z,42.805,6.029,13.3024,4.60105,2470.507,2022-7-28T14:04:28Z
2022-07-28T12:05:43Z,42.805,6.029,13.3052,4.60109,2470.52,2022-7-28T14:07:31Z
2022-07-28T12:08:47Z,42.805,6.029,13.3029,4.60093,2470.544,2022-7-28T14:10:34Z
2022-07-28T12:11:50Z,42.805,6.029,13.3017,4.60108,2470.507,2022-7-28T14:13:37Z
2022-07-28T12:14:53Z,42.805,6.029,13.3023,4.60097,2470.567,2022-7-28T14:16:40Z
2022-07-28T12:17:56Z,42.805,6.029,13.3035,4.60110,2470.544,2022-7-28T14:19:44Z
2022-07-28T12:20:59Z,42.805,6.029,13.3032,4.60127,2470.53,2022-7-28T14:22:47Z
2022-07-28T12:24:02Z,42.805,6.029,13.3026,4.60107,2470.544,2022-7-28T14:25:50Z
2022-07-28T12:27:05Z,42.805,6.029,13.3017,4.60099,2470.53,2022-7-28T14:28:53Z
2022-07-28T12:30:09Z,42.805,6.029,13.3019,4.60105,2470.507,2022-7-28T14:31:56Z
2022-07-28T12:33:12Z,42.805,6.029,13.3026,4.60102,2470.53,2022-7-28T14:34:59Z
2022-07-28T12:36:15Z,42.805,6.029,13.3034,4.60117,2470.544,2022-7-28T14:38:02Z
2022-07-28T12:39:18Z,42.805,6.029,13.3023,4.60109,2470.544,2022-7-28T14:41:05Z
2022-07-28T12:42:21Z,42.805,6.029,13.3023,4.60122,2470.53,2022-7-28T14:44:09Z
2022-07-28T12:45:24Z,42.805,6.029,13.3029,4.60114,2470.544,2022-7-28T14:47:12Z
2022-07-28T12:48:27Z,42.805,6.029,13.3024,4.60102,2470.53,2022-7-28T14:50:15Z
2022-07-28T12:51:30Z,42.805,6.029,13.3033,4.60117,2470.567,2022-7-28T14:53:18Z
2022-07-28T12:54:33Z,42.805,6.029,13.3031,4.60123,2470.544,2022-7-28T14:56:21Z
2022-07-28T12:57:37Z,42.805,6.029,13.3030,4.60104,2470.544,2022-7-28T14:59:24Z
2022-07-28T13:00:40Z,42.805,6.029,13.3026,4.60094,2470.553,2022-7-28T15:02:27Z
2022-07-28T13:03:43Z,42.805,6.029,13.3020,4.60087,2470.53,2022-7-28T15:05:30Z
2022-07-28T13:06:46Z,42.805,6.029,13.3027,4.60099,2470.553,2022-7-28T15:08:34Z
2022-07-28T13:09:49Z,42.805,6.029,13.3021,4.60096,2470.507,2022-7-28T15:11:37Z
2022-07-28T13:12:52Z,42.805,6.029,13.3020,4.60089,2470.553,2022-7-28T15:14:40Z
2022-07-28T13:15:55Z,42.805,6.029,13.3031,4.60102,2470.52,2022-7-28T15:17:43Z
2022-07-28T13:18:59Z,42.805,6.029,13.3040,4.60102,2470.53,2022-7-28T15:20:46Z
2022-07-28T13:22:02Z,42.805,6.029,13.3016,4.60087,2470.53,2022-7-28T15:23:49Z
2022-07-28T13:25:05Z,42.805,6.029,13.3026,4.60092,2470.553,2022-7-28T15:26:52Z
2022-07-28T13:28:08Z,42.805,6.029,13.3027,4.60111,2470.507,2022-7-28T15:29:55Z
2022-07-28T13:31:11Z,42.805,6.029,13.3055,4.60129,2470.544,2022-7-28T15:32:59Z
2022-07-28T13:34:14Z,42.805,6.029,13.3029,4.60118,2470.544,2022-7-28T15:36:02Z
2022-07-28T13:37:17Z,42.805,6.029,13.3020,4.60110,2470.53,2022-7-28T15:39:05Z
2022-07-28T13:40:20Z,42.805,6.029,13.3024,4.60104,2470.553,2022-7-28T15:42:08Z
2022-07-28T13:43:24Z,42.805,6.029,13.3018,4.60106,2470.53,2022-7-28T15:45:11Z
2022-07-28T13:46:27Z,42.805,6.029,13.3033,4.60110,2470.53,2022-7-28T15:48:14Z
2022-07-28T13:49:30Z,42.805,6.029,13.3024,4.60109,2470.544,2022-7-28T15:51:17Z
2022-07-28T13:52:33Z,42.805,6.029,13.3034,4.60108,2470.544,2022-7-28T15:54:20Z
2022-07-28T13:55:36Z,42.805,6.029,13.3036,4.60103,2470.553,2022-7-28T15:57:24Z
2022-07-28T13:58:39Z,42.805,6.029,13.3026,4.60085,2470.53,2022-7-28T16:00:27Z
2022-07-28T14:01:42Z,42.805,6.029,13.3029,4.60112,2470.53,2022-7-28T16:03:30Z
2022-07-28T14:04:45Z,42.805,6.029,13.3028,4.60102,2470.544,2022-7-28T16:06:33Z
2022-07-28T14:07:49Z,42.805,6.029,13.3022,4.60098,2470.567,2022-7-28T16:09:36Z
2022-07-28T14:10:52Z,42.805,6.029,13.3029,4.60113,2470.544,2022-7-28T16:12:39Z
2022-07-28T14:13:55Z,42.805,6.029,13.3021,4.60121,2470.567,2022-7-28T16:15:42Z
2022-07-28T14:16:58Z,42.805,6.029,13.3029,4.60099,2470.53,2022-7-28T16:18:46Z
2022-07-28T14:20:01Z,42.805,6.029,13.3025,4.60112,2470.53,2022-7-28T16:21:49Z
2022-07-28T14:23:04Z,42.805,6.029,13.3032,4.60112,2470.553,2022-7-28T16:24:52Z
2022-07-28T14:26:07Z,42.805,6.029,13.3023,4.60100,2470.53,2022-7-28T16:27:55Z
2022-07-28T14:29:10Z,42.805,6.029,13.3029,4.60119,2470.567,2022-7-28T16:30:58Z
2022-07-28T14:32:14Z,42.805,6.029,13.3030,4.60101,2470.553,2022-7-28T16:34:01Z
2022-07-28T14:35:17Z,42.805,6.029,13.3030,4.60111,2470.567,2022-7-28T16:37:04Z
2022-07-28T14:38:20Z,42.805,6.029,13.3023,4.60118,2470.553,2022-7-28T16:40:07Z
2022-07-28T14:41:23Z,42.805,6.029,13.3032,4.60097,2470.544,2022-7-28T16:43:11Z
2022-07-28T14:44:26Z,42.805,6.029,13.3025,4.60112,2470.507,2022-7-28T16:46:14Z
2022-07-28T14:47:29Z,42.805,6.029,13.3027,4.60105,2470.577,2022-7-28T16:49:17Z
2022-07-28T14:50:32Z,42.805,6.029,13.3034,4.60104,2470.507,2022-7-28T16:52:20Z
2022-07-28T14:53:35Z,42.805,6.029,13.3023,4.60104,2470.544,2022-7-28T16:55:23Z
2022-07-28T14:56:39Z,42.805,6.029,13.3023,4.60096,2470.577,2022-7-28T16:58:26Z
2022-07-28T14:59:42Z,42.805,6.029,13.3026,4.60104,2470.591,2022-7-28T17:01:29Z
2022-07-28T15:02:45Z,42.805,6.029,13.3022,4.60116,2470.553,2022-7-28T17:04:32Z
2022-07-28T15:05:48Z,42.805,6.029,13.3026,4.60111,2470.567,2022-7-28T17:07:36Z
2022-07-28T15:08:51Z,42.805,6.029,13.3024,4.60134,2470.577,2022-7-28T17:10:39Z
2022-07-28T15:11:54Z,42.805,6.029,13.3041,4.60117,2470.577,2022-7-28T17:13:42Z
2022-07-28T15:14:57Z,42.805,6.029,13.3026,4.60118,2470.53,2022-7-28T17:16:45Z